When you browse on this site, cookies collect data to enhance your experience and personalize the content and advertising you see.
Visit our Privacy Policy to learn more. By continuing to use the site, you agree to this use of cookies and data.
  • In Lithuania
  • List of Countries
  • For 7 days
  • Water Temperature
  • Weather Map
  • Weather Widgets
  • user-avatar
    Login

    Hourly Weather Dzhubba

    Today, 6 April, Monday

    Time Temperature Precipitation Wind Pressure Humidity
    00:00 +28°C° 0 mm 1 mps 705 mmHg 65%
    01:00 +27°C° 0 mm 1 mps 705 mmHg 67%
    02:00 +26°C° 0 mm 1 mps 705 mmHg 68%
    03:00 +26°C° 0.1 mm 1 mps 705 mmHg 70%
    04:00 +26°C° 0.1 mm 1 mps 705 mmHg 72%
    05:00 +25°C° 0.1 mm 1 mps 705 mmHg 73%
    06:00 +27°C° 0.1 mm 1 mps 706 mmHg 68%
    07:00 +29°C° 0.1 mm 2 mps 707 mmHg 62%
    08:00 +30°C° 0 mm 2 mps 708 mmHg 55%
    09:00 +31°C° 0 mm 2 mps 708 mmHg 51%
    10:00 +32°C° 0 mm 2 mps 707 mmHg 48%
    11:00 +34°C° 0 mm 2 mps 707 mmHg 44%
    12:00 +35°C° 0 mm 1 mps 707 mmHg 39%
    13:00 +37°C° 0 mm 1 mps 706 mmHg 34%
    14:00 +40°C° 0 mm 1 mps 705 mmHg 29%
    15:00 +39°C° 0 mm 1 mps 705 mmHg 31%
    16:00 +37°C° 0 mm 1 mps 704 mmHg 32%
    17:00 +36°C° 0 mm 1 mps 704 mmHg 34%
    18:00 +34°C° 0 mm 1 mps 704 mmHg 38%
    19:00 +33°C° 0 mm 1 mps 705 mmHg 41%
    20:00 +31°C° 0 mm 1 mps 705 mmHg 45%
    21:00 +31°C° 0 mm 1 mps 705 mmHg 48%
    22:00 +30°C° 0 mm 1 mps 705 mmHg 51%
    23:00 +27°C° 0 mm 0 mps 705 mmHg 54%

    Tomorrow, 7 April, Tuesday

    Time Temperature Precipitation Wind Pressure Humidity
    00:00 +29°C° 0 mm 1 mps 705 mmHg 55%
    01:00 +28°C° 0 mm 1 mps 705 mmHg 56%
    02:00 +28°C° 0 mm 1 mps 704 mmHg 57%
    03:00 +28°C° 0 mm 1 mps 705 mmHg 58%
    04:00 +27°C° 0 mm 1 mps 705 mmHg 59%
    05:00 +27°C° 0 mm 1 mps 705 mmHg 60%
    06:00 +28°C° 0 mm 1 mps 706 mmHg 55%
    07:00 +30°C° 0 mm 2 mps 707 mmHg 50%
    08:00 +32°C° 0 mm 2 mps 708 mmHg 45%
    09:00 +35°C° 0 mm 2 mps 707 mmHg 39%
    10:00 +37°C° 0 mm 2 mps 707 mmHg 33%
    11:00 +40°C° 0 mm 2 mps 707 mmHg 27%
    12:00 +40°C° 0 mm 2 mps 706 mmHg 25%
    13:00 +41°C° 0 mm 2 mps 705 mmHg 23%
    14:00 +42°C° 0 mm 2 mps 704 mmHg 22%
    15:00 +41°C° 0 mm 1 mps 704 mmHg 24%
    16:00 +40°C° 0 mm 1 mps 703 mmHg 26%
    17:00 +37°C° 0 mm 1 mps 703 mmHg 28%
    18:00 +36°C° 0 mm 1 mps 703 mmHg 29%
    19:00 +35°C° 0 mm 1 mps 704 mmHg 31%
    20:00 +34°C° 0 mm 1 mps 704 mmHg 32%
    21:00 +33°C° 0 mm 1 mps 704 mmHg 34%
    22:00 +30°C° 0 mm 0 mps 704 mmHg 36%
    23:00 +30°C° 0 mm 0 mps 705 mmHg 37%

    Day after tomorrow, 8 April, Wednesday

    Time Temperature Precipitation Wind Pressure Humidity
    00:00 +31°C° 0 mm 1 mps 705 mmHg 39%
    01:00 +31°C° 0 mm 1 mps 705 mmHg 41%
    02:00 +30°C° 0 mm 2 mps 704 mmHg 42%
    03:00 +29°C° 0 mm 2 mps 704 mmHg 44%
    04:00 +29°C° 0 mm 1 mps 704 mmHg 46%
    05:00 +28°C° 0 mm 1 mps 704 mmHg 48%
    06:00 +30°C° 0 mm 1 mps 705 mmHg 46%
    07:00 +31°C° 0 mm 2 mps 706 mmHg 43%
    08:00 +32°C° 0 mm 2 mps 707 mmHg 41%
    09:00 +35°C° 0 mm 2 mps 707 mmHg 36%
    10:00 +38°C° 0 mm 2 mps 707 mmHg 31%
    11:00 +40°C° 0 mm 2 mps 706 mmHg 27%
    12:00 +41°C° 0 mm 2 mps 706 mmHg 25%
    13:00 +42°C° 0 mm 1 mps 705 mmHg 23%
    14:00 +43°C° 0 mm 1 mps 704 mmHg 21%
    15:00 +42°C° 0 mm 1 mps 704 mmHg 23%
    16:00 +41°C° 0 mm 1 mps 703 mmHg 24%
    17:00 +39°C° 0 mm 2 mps 703 mmHg 26%
    18:00 +37°C° 0 mm 1 mps 703 mmHg 28%
    19:00 +36°C° 0 mm 1 mps 703 mmHg 30%
    20:00 +34°C° 0 mm 1 mps 704 mmHg 33%
    21:00 +34°C° 0 mm 1 mps 704 mmHg 35%
    22:00 +33°C° 0 mm 1 mps 704 mmHg 37%
    23:00 +32°C° 0 mm 1 mps 704 mmHg 39%

    9 April, Thursday

    Time Temperature Precipitation Wind Pressure Humidity
    00:00 +32°C° 0 mm 1 mps 704 mmHg 41%
    01:00 +31°C° 0 mm 1 mps 704 mmHg 43%
    02:00 +30°C° 0 mm 1 mps 704 mmHg 46%
    03:00 +30°C° 0 mm 1 mps 704 mmHg 48%
    04:00 +29°C° 0 mm 1 mps 705 mmHg 50%
    05:00 +29°C° 0 mm 1 mps 705 mmHg 51%
    06:00 +30°C° 0 mm 2 mps 706 mmHg 51%
    07:00 +30°C° 0 mm 2 mps 706 mmHg 50%
    08:00 +31°C° 0 mm 3 mps 707 mmHg 49%
    09:00 +34°C° 0 mm 3 mps 707 mmHg 43%
    10:00 +37°C° 0 mm 3 mps 707 mmHg 37%
    11:00 +40°C° 0 mm 4 mps 707 mmHg 32%
    12:00 +39°C° 0 mm 3 mps 706 mmHg 29%
    13:00 +40°C° 0 mm 3 mps 705 mmHg 27%
    14:00 +41°C° 0 mm 2 mps 704 mmHg 25%
    15:00 +40°C° 0 mm 2 mps 704 mmHg 27%
    16:00 +39°C° 0 mm 2 mps 703 mmHg 29%
    17:00 +38°C° 0 mm 2 mps 703 mmHg 31%
    18:00 +36°C° 0 mm 2 mps 703 mmHg 36%
    19:00 +35°C° 0 mm 2 mps 703 mmHg 40%
    20:00 +32°C° 0 mm 2 mps 703 mmHg 45%
    21:00 +31°C° 0 mm 1 mps 703 mmHg 46%
    22:00 +31°C° 0 mm 1 mps 704 mmHg 47%
    23:00 +30°C° 0 mm 1 mps 704 mmHg 48%

    10 April, Friday

    Time Temperature Precipitation Wind Pressure Humidity
    00:00 +29°C° 0 mm 1 mps 704 mmHg 51%
    01:00 +29°C° 0 mm 1 mps 704 mmHg 54%
    02:00 +28°C° 0 mm 1 mps 704 mmHg 56%
    03:00 +28°C° 0.3 mm 1 mps 704 mmHg 60%
    04:00 +27°C° 0.3 mm 1 mps 705 mmHg 64%
    05:00 +27°C° 0.3 mm 1 mps 705 mmHg 68%
    06:00 +28°C° 0 mm 1 mps 706 mmHg 63%
    07:00 +30°C° 0 mm 1 mps 706 mmHg 58%
    08:00 +31°C° 0 mm 1 mps 707 mmHg 53%
    09:00 +34°C° 0 mm 2 mps 707 mmHg 46%
    10:00 +36°C° 0 mm 2 mps 707 mmHg 39%
    11:00 +38°C° 0 mm 3 mps 707 mmHg 32%
    12:00 +39°C° 0 mm 2 mps 706 mmHg 30%
    13:00 +40°C° 0 mm 2 mps 705 mmHg 28%
    14:00 +40°C° 0 mm 2 mps 704 mmHg 27%
    15:00 +40°C° 0 mm 1 mps 704 mmHg 27%
    16:00 +39°C° 0 mm 1 mps 703 mmHg 28%
    17:00 +35°C° 0 mm 0 mps 703 mmHg 29%
    18:00 +35°C° 0 mm 1 mps 703 mmHg 34%
    19:00 +35°C° 0 mm 2 mps 704 mmHg 39%
    20:00 +32°C° 0 mm 2 mps 704 mmHg 45%
    21:00 +30°C° 0.1 mm 2 mps 705 mmHg 52%
    22:00 +29°C° 0.1 mm 2 mps 705 mmHg 59%
    23:00 +28°C° 0.1 mm 1 mps 705 mmHg 67%

    11 April, Saturday

    Time Temperature Precipitation Wind Pressure Humidity
    00:00 +28°C° 1.1 mm 1 mps 705 mmHg 70%
    01:00 +27°C° 1.1 mm 1 mps 705 mmHg 73%
    02:00 +27°C° 1.1 mm 1 mps 705 mmHg 76%
    03:00 +26°C° 0.3 mm 1 mps 705 mmHg 77%
    04:00 +26°C° 0.3 mm 1 mps 705 mmHg 78%
    05:00 +23°C° 0.3 mm 0 mps 705 mmHg 80%
    06:00 +25°C° 0.1 mm 0 mps 706 mmHg 74%
    07:00 +28°C° 0.1 mm 1 mps 706 mmHg 69%
    08:00 +29°C° 0.1 mm 1 mps 707 mmHg 64%
    09:00 +32°C° 0 mm 1 mps 706 mmHg 56%
    10:00 +34°C° 0 mm 1 mps 706 mmHg 47%
    11:00 +38°C° 0 mm 2 mps 706 mmHg 39%
    12:00 +39°C° 0 mm 2 mps 705 mmHg 35%
    13:00 +40°C° 0 mm 2 mps 704 mmHg 32%
    14:00 +40°C° 0 mm 2 mps 704 mmHg 29%
    15:00 +39°C° 0 mm 2 mps 703 mmHg 32%
    16:00 +38°C° 0 mm 3 mps 703 mmHg 35%
    17:00 +36°C° 0 mm 3 mps 702 mmHg 38%
    18:00 +35°C° 0.2 mm 3 mps 703 mmHg 43%
    19:00 +32°C° 0.2 mm 2 mps 703 mmHg 47%
    20:00 +31°C° 0.2 mm 1 mps 703 mmHg 51%
    21:00 +30°C° 0.5 mm 1 mps 704 mmHg 56%
    22:00 +29°C° 0.5 mm 1 mps 704 mmHg 61%
    23:00 +28°C° 0.5 mm 1 mps 704 mmHg 66%
    Show more